Find Hawk 9B

NORAD ID: 59450 Int'l Des: 2024-066 Owner: HE360 Country: US Constellation: hawkeye-360 operational
LEOCIRCULAR

現在のビュー

3D地球を読み込み中...

Hawk 9Bについて

説明を読み込み中...

次回通過

Passes for default location (London). Set your location on the main map for personalized predictions.

高度履歴

Loading altitude history...

軌道要素

1 59450U 24066J 26158.20494148 .00001896 00000-0 17250-3 0 9997
2 59450 45.6166 329.7524 0003629 311.5573 48.4997 14.99112755118331
Epoch: Jun 7, 2026 • Age: 27 hours

現在のステータス

高度 568.9 km
速度 7.58 km/s
衛星直下点 -7.76°S, 61.34°W
打ち上げ日 Apr 7, 2024
運用期間 2.1 years
タイプ other

技術仕様

分類 Payload
質量 31.00 kg
乾燥質量 30.00 kg
総質量 31.00 kg
長さ 0.45 m
直径 0.30 m
スパン 1.00 m
形状 Box + 2 pan
製造者 UTIAS
バスタイプ Hawk2G
フェーズステータス In Orbit
所有者/国 HE360/US

Most Searched